Year,Month,Day,Hour,Minute,Value (Times are PST for temperature in C)
2007,06,26,00,00,12.20
2007,06,26,00,01,12.20
2007,06,26,00,02,12.20
2007,06,26,00,03,12.10
2007,06,26,00,04,12.10
2007,06,26,00,05,12.10
2007,06,26,00,06,12.20
2007,06,26,00,07,12.20
2007,06,26,00,08,12.20
2007,06,26,00,09,12.20
2007,06,26,00,10,12.20
2007,06,26,00,11,12.30
2007,06,26,00,12,12.30
2007,06,26,00,13,12.30
2007,06,26,00,14,12.30
2007,06,26,00,15,12.30
2007,06,26,00,16,12.30
2007,06,26,00,17,12.30
2007,06,26,00,18,12.30
2007,06,26,00,19,12.30
2007,06,26,00,20,12.30
2007,06,26,00,21,12.30
2007,06,26,00,22,12.30
2007,06,26,00,23,12.30
2007,06,26,00,24,12.30
2007,06,26,00,25,12.30
2007,06,26,00,26,12.30
2007,06,26,00,27,12.30
2007,06,26,00,28,12.20
2007,06,26,00,29,12.20
2007,06,26,00,30,12.10
2007,06,26,00,31,12.10
2007,06,26,00,32,12.10
2007,06,26,00,33,12.10
2007,06,26,00,34,12.10
2007,06,26,00,35,12.00
2007,06,26,00,36,12.00
2007,06,26,00,37,12.00
2007,06,26,00,38,12.00
2007,06,26,00,39,12.00
2007,06,26,00,40,12.00
2007,06,26,00,41,12.00
2007,06,26,00,42,12.00
2007,06,26,00,43,12.00
2007,06,26,00,44,11.90
2007,06,26,00,45,11.90
2007,06,26,00,46,11.90
2007,06,26,00,47,11.90
2007,06,26,00,48,11.80
2007,06,26,00,49,11.80
2007,06,26,00,50,11.80
2007,06,26,00,51,11.80
2007,06,26,00,52,11.80
2007,06,26,00,53,11.80
2007,06,26,00,54,11.80
2007,06,26,00,55,11.80
2007,06,26,00,56,11.80
2007,06,26,00,57,11.80
2007,06,26,00,58,11.80
2007,06,26,00,59,11.80
2007,06,26,01,00,11.80
2007,06,26,01,01,11.80
2007,06,26,01,02,11.80
2007,06,26,01,03,11.80
2007,06,26,01,04,11.80
2007,06,26,01,05,11.70
2007,06,26,01,06,11.70
2007,06,26,01,07,11.70
2007,06,26,01,08,11.70
2007,06,26,01,09,11.70
2007,06,26,01,10,11.60
2007,06,26,01,11,11.60
2007,06,26,01,12,11.60
2007,06,26,01,13,11.60
2007,06,26,01,14,11.60
2007,06,26,01,15,11.60
2007,06,26,01,16,11.60
2007,06,26,01,17,11.60
2007,06,26,01,18,11.60
2007,06,26,01,19,11.60
2007,06,26,01,20,11.60
2007,06,26,01,21,11.60
2007,06,26,01,22,11.60
2007,06,26,01,23,11.60
2007,06,26,01,24,11.60
2007,06,26,01,25,11.40
2007,06,26,01,26,11.40
2007,06,26,01,27,11.40
2007,06,26,01,28,11.40
2007,06,26,01,29,11.40
2007,06,26,01,30,11.30
2007,06,26,01,31,11.30
2007,06,26,01,32,11.30
2007,06,26,01,33,11.30
2007,06,26,01,34,11.20
2007,06,26,01,35,11.20
2007,06,26,01,36,11.20
2007,06,26,01,37,11.20
2007,06,26,01,38,11.20
2007,06,26,01,39,11.20
2007,06,26,01,40,11.20
2007,06,26,01,41,11.20
2007,06,26,01,42,11.20
2007,06,26,01,43,11.20
2007,06,26,01,44,11.30
2007,06,26,01,45,11.30
2007,06,26,01,46,11.30
2007,06,26,01,47,11.30
2007,06,26,01,48,11.40
2007,06,26,01,49,11.40
2007,06,26,01,50,11.40
2007,06,26,01,51,11.40
2007,06,26,01,52,11.40
2007,06,26,01,53,11.40
2007,06,26,01,54,11.40
2007,06,26,01,55,11.40
2007,06,26,01,56,11.50
2007,06,26,01,57,11.50
2007,06,26,01,58,11.50
2007,06,26,01,59,11.40
2007,06,26,02,00,11.40
2007,06,26,02,01,11.40
2007,06,26,02,02,11.40
2007,06,26,02,03,11.40
2007,06,26,02,04,11.40
2007,06,26,02,05,11.40
2007,06,26,02,06,11.40
2007,06,26,02,07,11.30
2007,06,26,02,08,11.30
2007,06,26,02,09,11.30
2007,06,26,02,10,11.20
2007,06,26,02,11,11.20
2007,06,26,02,12,11.20
2007,06,26,02,13,11.20
2007,06,26,02,14,11.10
2007,06,26,02,15,11.10
2007,06,26,02,16,11.10
2007,06,26,02,17,11.10
2007,06,26,02,18,11.10
2007,06,26,02,19,11.10
2007,06,26,02,20,11.10
2007,06,26,02,21,11.10
2007,06,26,02,22,11.10
2007,06,26,02,23,11.10
2007,06,26,02,24,11.10
2007,06,26,02,25,11.10
2007,06,26,02,26,11.10
2007,06,26,02,27,11.10
2007,06,26,02,28,11.10
2007,06,26,02,29,11.10
2007,06,26,02,30,11.10
2007,06,26,02,31,11.20
2007,06,26,02,32,11.20
2007,06,26,02,33,11.20
2007,06,26,02,34,11.20
2007,06,26,02,35,11.20
2007,06,26,02,36,11.20
2007,06,26,02,37,11.20
2007,06,26,02,38,11.20
2007,06,26,02,39,11.20
2007,06,26,02,40,11.20
2007,06,26,02,41,11.20
2007,06,26,02,42,11.20
2007,06,26,02,43,11.20
2007,06,26,02,44,11.20
2007,06,26,02,45,11.20
2007,06,26,02,46,11.10
2007,06,26,02,47,11.10
2007,06,26,02,48,11.10
2007,06,26,02,49,11.10
2007,06,26,02,50,11.10
2007,06,26,02,51,11.10
2007,06,26,02,52,11.10
2007,06,26,02,53,11.10
2007,06,26,02,54,10.90
2007,06,26,02,55,10.90
2007,06,26,02,56,10.90
2007,06,26,02,57,10.90
2007,06,26,02,58,10.90
2007,06,26,02,59,10.90
2007,06,26,03,00,10.90
2007,06,26,03,01,10.90
2007,06,26,03,02,10.90
2007,06,26,03,03,10.90
2007,06,26,03,04,10.90
2007,06,26,03,05,10.80
2007,06,26,03,06,10.80
2007,06,26,03,07,10.80
2007,06,26,03,08,10.80
2007,06,26,03,09,10.70
2007,06,26,03,10,10.60
2007,06,26,03,11,10.60
2007,06,26,03,12,10.60
2007,06,26,03,13,10.60
2007,06,26,03,14,10.40
2007,06,26,03,15,10.40
2007,06,26,03,16,10.40
2007,06,26,03,17,10.40
2007,06,26,03,18,10.40
2007,06,26,03,19,10.40
2007,06,26,03,20,10.40
2007,06,26,03,21,10.40
2007,06,26,03,22,10.30
2007,06,26,03,23,10.30
2007,06,26,03,24,10.30
2007,06,26,03,25,10.30
2007,06,26,03,26,10.30
2007,06,26,03,27,10.30
2007,06,26,03,28,10.20
2007,06,26,03,29,10.20
2007,06,26,03,30,10.20
2007,06,26,03,31,10.20
2007,06,26,03,32,10.20
2007,06,26,03,33,10.30
2007,06,26,03,34,10.30
2007,06,26,03,35,10.30
2007,06,26,03,36,10.30
2007,06,26,03,37,10.30
2007,06,26,03,38,10.30
2007,06,26,03,39,10.30
2007,06,26,03,40,10.30
2007,06,26,03,41,10.30
2007,06,26,03,42,10.30
2007,06,26,03,43,10.30
2007,06,26,03,44,10.30
2007,06,26,03,45,10.30
2007,06,26,03,46,10.40
2007,06,26,03,47,10.40
2007,06,26,03,48,10.40
2007,06,26,03,49,10.40
2007,06,26,03,50,10.40
2007,06,26,03,51,10.40
2007,06,26,03,52,10.50
2007,06,26,03,53,10.60
2007,06,26,03,54,10.60
2007,06,26,03,55,10.60
2007,06,26,03,56,10.60
2007,06,26,03,57,10.60
2007,06,26,03,58,10.60
2007,06,26,03,59,10.60
2007,06,26,04,00,10.60
2007,06,26,04,01,10.60
2007,06,26,04,02,10.60
2007,06,26,04,03,10.60
2007,06,26,04,04,10.60
2007,06,26,04,05,10.60
2007,06,26,04,06,10.60
2007,06,26,04,07,10.60
2007,06,26,04,08,10.60
2007,06,26,04,09,10.60
2007,06,26,04,10,10.60
2007,06,26,04,11,10.60
2007,06,26,04,12,10.60
2007,06,26,04,13,10.60
2007,06,26,04,14,10.60
2007,06,26,04,15,10.60
2007,06,26,04,16,10.60
2007,06,26,04,17,10.60
2007,06,26,04,18,10.60
2007,06,26,04,19,10.60
2007,06,26,04,20,10.60
2007,06,26,04,21,10.60
2007,06,26,04,22,10.60
2007,06,26,04,23,10.60
2007,06,26,04,24,10.60
2007,06,26,04,25,10.60
2007,06,26,04,26,10.60
2007,06,26,04,27,10.60
2007,06,26,04,28,10.60
2007,06,26,04,29,10.60
2007,06,26,04,30,10.60
2007,06,26,04,31,10.60
2007,06,26,04,32,10.60
2007,06,26,04,33,10.60
2007,06,26,04,34,10.60
2007,06,26,04,35,10.60
2007,06,26,04,36,10.60
2007,06,26,04,37,10.60
2007,06,26,04,38,10.60
2007,06,26,04,39,10.60
2007,06,26,04,40,10.60
2007,06,26,04,41,10.60
2007,06,26,04,42,10.60
2007,06,26,04,43,10.60
2007,06,26,04,44,10.60
2007,06,26,04,45,10.60
2007,06,26,04,46,10.50
2007,06,26,04,47,10.40
2007,06,26,04,48,10.40
2007,06,26,04,49,10.40
2007,06,26,04,50,10.40
2007,06,26,04,51,10.40
2007,06,26,04,52,10.30
2007,06,26,04,53,10.30
2007,06,26,04,54,10.20
2007,06,26,04,55,10.20
2007,06,26,04,56,10.20
2007,06,26,04,57,10.10
2007,06,26,04,58,10.10
2007,06,26,04,59,10.10
2007,06,26,05,00,10.10
2007,06,26,05,01,10.10
2007,06,26,05,02,10.10
2007,06,26,05,03,10.10
2007,06,26,05,04,10.10
2007,06,26,05,05,10.10
2007,06,26,05,06,10.10
2007,06,26,05,07,10.10
2007,06,26,05,08,10.10
2007,06,26,05,09,10.10
2007,06,26,05,10,10.10
2007,06,26,05,11,10.10
2007,06,26,05,12,10.20
2007,06,26,05,13,10.20
2007,06,26,05,14,10.20
2007,06,26,05,15,10.20
2007,06,26,05,16,10.20
2007,06,26,05,17,10.20
2007,06,26,05,18,10.20
2007,06,26,05,19,10.20
2007,06,26,05,20,10.20
2007,06,26,05,21,10.20
2007,06,26,05,22,10.20
2007,06,26,05,23,10.20
2007,06,26,05,24,10.20
2007,06,26,05,25,10.20
2007,06,26,05,26,10.20
2007,06,26,05,27,10.20
2007,06,26,05,28,10.20
2007,06,26,05,29,10.20
2007,06,26,05,30,10.10
2007,06,26,05,31,10.10
2007,06,26,05,32,10.10
2007,06,26,05,33,10.10
2007,06,26,05,34,10.10
2007,06,26,05,35,10.10
2007,06,26,05,36,10.10
2007,06,26,05,37,10.10
2007,06,26,05,38,10.10
2007,06,26,05,39,10.20
2007,06,26,05,40,10.20
2007,06,26,05,41,10.20
2007,06,26,05,42,10.20
2007,06,26,05,43,10.20
2007,06,26,05,44,10.20
2007,06,26,05,45,10.20
2007,06,26,05,46,10.20
2007,06,26,05,47,10.20
2007,06,26,05,48,10.20
2007,06,26,05,49,10.20
2007,06,26,05,50,10.20
2007,06,26,05,51,10.10
2007,06,26,05,52,10.10
2007,06,26,05,53,10.10
2007,06,26,05,54,10.10
2007,06,26,05,55,10.10
2007,06,26,05,56,10.10
2007,06,26,05,57,10.00
2007,06,26,05,58,9.90
2007,06,26,05,59,9.90
2007,06,26,06,00,9.90
2007,06,26,06,01,10.00
2007,06,26,06,02,10.10
2007,06,26,06,03,10.10
2007,06,26,06,04,10.10
2007,06,26,06,05,10.10
2007,06,26,06,06,10.10
2007,06,26,06,07,10.10
2007,06,26,06,08,10.10
2007,06,26,06,09,10.20
2007,06,26,06,10,10.20
2007,06,26,06,11,10.20
2007,06,26,06,12,10.30
2007,06,26,06,13,10.30
2007,06,26,06,14,10.30
2007,06,26,06,15,10.30
2007,06,26,06,16,10.30
2007,06,26,06,17,10.30
2007,06,26,06,18,10.30
2007,06,26,06,19,10.30
2007,06,26,06,20,10.40
2007,06,26,06,21,10.40
2007,06,26,06,22,10.40
2007,06,26,06,23,10.40
2007,06,26,06,24,10.50
2007,06,26,06,25,10.60
2007,06,26,06,26,10.60
2007,06,26,06,27,10.60
2007,06,26,06,28,10.70
2007,06,26,06,29,10.70
2007,06,26,06,30,10.80
2007,06,26,06,31,10.80
2007,06,26,06,32,10.80
2007,06,26,06,33,10.90
2007,06,26,06,34,10.90
2007,06,26,06,35,10.90
2007,06,26,06,36,10.90
2007,06,26,06,37,10.90
2007,06,26,06,38,10.90
2007,06,26,06,39,11.00
2007,06,26,06,40,11.10
2007,06,26,06,41,11.10
2007,06,26,06,42,11.10
2007,06,26,06,43,11.20
2007,06,26,06,44,11.20
2007,06,26,06,45,11.30
2007,06,26,06,46,11.30
2007,06,26,06,47,11.40
2007,06,26,06,48,11.40
2007,06,26,06,49,11.40
2007,06,26,06,50,11.40
2007,06,26,06,51,11.60
2007,06,26,06,52,11.60
2007,06,26,06,53,11.60
2007,06,26,06,54,11.60
2007,06,26,06,55,11.60
2007,06,26,06,56,11.60
2007,06,26,06,57,11.70
2007,06,26,06,58,11.70
2007,06,26,06,59,11.70
2007,06,26,07,00,11.80
2007,06,26,07,01,11.80
2007,06,26,07,02,11.80
2007,06,26,07,03,11.80
2007,06,26,07,04,11.80
2007,06,26,07,05,11.90
2007,06,26,07,06,11.90
2007,06,26,07,07,11.90
2007,06,26,07,08,11.90
2007,06,26,07,09,11.90
2007,06,26,07,10,12.00
2007,06,26,07,11,12.00
2007,06,26,07,12,12.00
2007,06,26,07,13,12.00
2007,06,26,07,14,12.10
2007,06,26,07,15,12.10
2007,06,26,07,16,12.10
2007,06,26,07,17,12.10
2007,06,26,07,18,12.10
2007,06,26,07,19,12.20
2007,06,26,07,20,12.20
2007,06,26,07,21,12.20
2007,06,26,07,22,12.30
2007,06,26,07,23,12.30
2007,06,26,07,24,12.30
2007,06,26,07,25,12.30
2007,06,26,07,26,12.30
2007,06,26,07,27,12.40
2007,06,26,07,28,12.40
2007,06,26,07,29,12.50
2007,06,26,07,30,12.60
2007,06,26,07,31,12.60
2007,06,26,07,32,12.70
2007,06,26,07,33,12.70
2007,06,26,07,34,12.80
2007,06,26,07,35,12.80
2007,06,26,07,36,12.80
2007,06,26,07,37,12.80
2007,06,26,07,38,12.80
2007,06,26,07,39,12.90
2007,06,26,07,40,12.90
2007,06,26,07,41,13.00
2007,06,26,07,42,13.00
2007,06,26,07,43,13.00
2007,06,26,07,44,13.10
2007,06,26,07,45,13.10
2007,06,26,07,46,13.10
2007,06,26,07,47,13.20
2007,06,26,07,48,13.20
2007,06,26,07,49,13.30
2007,06,26,07,50,13.30
2007,06,26,07,51,13.40
2007,06,26,07,52,13.40
2007,06,26,07,53,13.50
2007,06,26,07,54,13.60
2007,06,26,07,55,13.60
2007,06,26,07,56,13.70
2007,06,26,07,57,13.70
2007,06,26,07,58,13.70
2007,06,26,07,59,13.90
2007,06,26,08,00,13.90
2007,06,26,08,01,14.00
2007,06,26,08,02,14.10
2007,06,26,08,03,14.20
2007,06,26,08,04,14.20
2007,06,26,08,05,14.30
2007,06,26,08,06,14.40
2007,06,26,08,07,14.40
2007,06,26,08,08,14.50
2007,06,26,08,09,14.50
2007,06,26,08,10,14.60
2007,06,26,08,11,14.60
2007,06,26,08,12,14.70
2007,06,26,08,13,14.80
2007,06,26,08,14,14.80
2007,06,26,08,15,14.80
2007,06,26,08,16,14.80
2007,06,26,08,17,14.90
2007,06,26,08,18,14.90
2007,06,26,08,19,14.90
2007,06,26,08,20,14.90
2007,06,26,08,21,14.90
2007,06,26,08,22,14.90
2007,06,26,08,23,14.90
2007,06,26,08,24,14.90
2007,06,26,08,25,14.90
2007,06,26,08,26,14.80
2007,06,26,08,27,14.80
2007,06,26,08,28,14.80
2007,06,26,08,29,14.80
2007,06,26,08,30,14.80
2007,06,26,08,31,14.80
2007,06,26,08,32,14.80
2007,06,26,08,33,14.80
2007,06,26,08,34,14.80
2007,06,26,08,35,14.80
2007,06,26,08,36,14.90
2007,06,26,08,37,14.90
2007,06,26,08,38,14.90
2007,06,26,08,39,14.90
2007,06,26,08,40,14.90
2007,06,26,08,41,14.90
2007,06,26,08,42,15.00
2007,06,26,08,43,14.90
2007,06,26,08,44,14.90
2007,06,26,08,45,14.90
2007,06,26,08,46,14.90
2007,06,26,08,47,14.90
2007,06,26,08,48,14.90
2007,06,26,08,49,14.90
2007,06,26,08,50,14.90
2007,06,26,08,51,15.00
2007,06,26,08,52,15.00
2007,06,26,08,53,15.00
2007,06,26,08,54,15.00
2007,06,26,08,55,15.00
2007,06,26,08,56,15.00
2007,06,26,08,57,15.00
2007,06,26,08,58,15.00
2007,06,26,08,59,15.10
2007,06,26,09,00,15.10
2007,06,26,09,01,15.10
2007,06,26,09,02,15.10
2007,06,26,09,03,15.10
2007,06,26,09,04,15.10
2007,06,26,09,05,15.10
2007,06,26,09,06,15.20
2007,06,26,09,07,15.20
2007,06,26,09,08,15.20
2007,06,26,09,09,15.20
2007,06,26,09,10,15.20
2007,06,26,09,11,15.30
2007,06,26,09,12,15.20
2007,06,26,09,13,15.20
2007,06,26,09,14,15.20
2007,06,26,09,15,15.20
2007,06,26,09,16,15.20
2007,06,26,09,17,15.30
2007,06,26,09,18,15.30
2007,06,26,09,19,15.40
2007,06,26,09,20,15.40
2007,06,26,09,21,15.50
2007,06,26,09,22,15.50
2007,06,26,09,23,15.50
2007,06,26,09,24,15.50
2007,06,26,09,25,15.50
2007,06,26,09,26,15.60
2007,06,26,09,27,15.60
2007,06,26,09,28,15.60
2007,06,26,09,29,15.60
2007,06,26,09,30,15.70
2007,06,26,09,31,15.60
2007,06,26,09,32,15.70
2007,06,26,09,33,15.70
2007,06,26,09,34,15.70
2007,06,26,09,35,15.70
2007,06,26,09,36,15.70
2007,06,26,09,37,15.70
2007,06,26,09,38,15.70
2007,06,26,09,39,15.70
2007,06,26,09,40,15.70
2007,06,26,09,41,15.60
2007,06,26,09,42,15.70
2007,06,26,09,43,15.70
2007,06,26,09,44,15.70
2007,06,26,09,45,15.70
2007,06,26,09,46,15.70
2007,06,26,09,47,15.70
2007,06,26,09,48,15.70
2007,06,26,09,49,15.80
2007,06,26,09,50,15.80
2007,06,26,09,51,15.80
2007,06,26,09,52,15.80
2007,06,26,09,53,15.90
2007,06,26,09,54,15.90
2007,06,26,09,55,15.80
2007,06,26,09,56,15.80
2007,06,26,09,57,15.80
2007,06,26,09,58,15.80
2007,06,26,09,59,15.90
2007,06,26,10,00,15.90
2007,06,26,10,01,16.00
2007,06,26,10,02,16.10
2007,06,26,10,03,16.20
2007,06,26,10,04,16.20
2007,06,26,10,05,16.20
2007,06,26,10,06,16.10
2007,06,26,10,07,16.10
2007,06,26,10,08,16.10
2007,06,26,10,09,16.10
2007,06,26,10,10,16.10
2007,06,26,10,11,16.20
2007,06,26,10,12,16.20
2007,06,26,10,13,16.20
2007,06,26,10,14,16.30
2007,06,26,10,15,16.40
2007,06,26,10,16,16.60
2007,06,26,10,17,16.60
2007,06,26,10,18,16.70
2007,06,26,10,19,16.60
2007,06,26,10,20,16.50
2007,06,26,10,21,16.40
2007,06,26,10,22,16.40
2007,06,26,10,23,16.40
2007,06,26,10,24,16.40
2007,06,26,10,25,16.40
2007,06,26,10,26,16.40
2007,06,26,10,27,16.40
2007,06,26,10,28,16.40
2007,06,26,10,29,16.30
2007,06,26,10,30,16.30
2007,06,26,10,31,16.30
2007,06,26,10,32,16.30
2007,06,26,10,33,16.30
2007,06,26,10,34,16.40
2007,06,26,10,35,16.50
2007,06,26,10,36,16.70
2007,06,26,10,37,16.70
2007,06,26,10,38,16.70
2007,06,26,10,39,16.70
2007,06,26,10,40,16.70
2007,06,26,10,41,16.60
2007,06,26,10,42,16.50
2007,06,26,10,43,16.50
2007,06,26,10,44,16.60
2007,06,26,10,45,16.60
2007,06,26,10,46,16.60
2007,06,26,10,47,16.70
2007,06,26,10,48,16.70
2007,06,26,10,49,16.70
2007,06,26,10,50,16.70
2007,06,26,10,51,16.70
2007,06,26,10,52,16.70
2007,06,26,10,53,16.80
2007,06,26,10,54,16.90
2007,06,26,10,55,16.90
2007,06,26,10,56,16.90
2007,06,26,10,57,17.00
2007,06,26,10,58,17.00
2007,06,26,10,59,16.90
2007,06,26,11,00,16.90
2007,06,26,11,01,17.00
2007,06,26,11,02,17.00
2007,06,26,11,03,17.00
2007,06,26,11,04,17.00
2007,06,26,11,05,17.10
2007,06,26,11,06,17.00
2007,06,26,11,07,17.10
2007,06,26,11,08,17.10
2007,06,26,11,09,17.10
2007,06,26,11,10,17.20
2007,06,26,11,11,17.20
2007,06,26,11,12,17.30
2007,06,26,11,13,17.40
2007,06,26,11,14,17.40
2007,06,26,11,15,17.30
2007,06,26,11,16,17.30
2007,06,26,11,17,17.30
2007,06,26,11,18,17.20
2007,06,26,11,19,17.20
2007,06,26,11,20,17.20
2007,06,26,11,21,17.20
2007,06,26,11,22,17.30
2007,06,26,11,23,17.40
2007,06,26,11,24,17.50
2007,06,26,11,25,17.50
2007,06,26,11,26,17.50
2007,06,26,11,27,17.60
2007,06,26,11,28,17.60
2007,06,26,11,29,17.50
2007,06,26,11,30,17.60
2007,06,26,11,31,17.60
2007,06,26,11,32,17.60
2007,06,26,11,33,17.60
2007,06,26,11,34,17.60
2007,06,26,11,35,17.60
2007,06,26,11,36,17.60
2007,06,26,11,37,17.60
2007,06,26,11,38,17.70
2007,06,26,11,39,17.70
2007,06,26,11,40,17.70
2007,06,26,11,41,17.70
2007,06,26,11,42,17.60
2007,06,26,11,43,17.60
2007,06,26,11,44,17.60
2007,06,26,11,45,17.70
2007,06,26,11,46,17.60
2007,06,26,11,47,17.60
2007,06,26,11,48,17.60
2007,06,26,11,49,17.60
2007,06,26,11,50,17.60
2007,06,26,11,51,17.70
2007,06,26,11,52,17.80
2007,06,26,11,53,17.90
2007,06,26,11,54,17.90
2007,06,26,11,55,17.90
2007,06,26,11,56,17.90
2007,06,26,11,57,17.90
2007,06,26,11,58,17.90
2007,06,26,11,59,17.90
2007,06,26,12,00,18.00
2007,06,26,12,01,18.10
2007,06,26,12,02,18.10
2007,06,26,12,03,18.10
2007,06,26,12,04,18.00
2007,06,26,12,05,17.90
2007,06,26,12,06,18.00
2007,06,26,12,07,18.10
2007,06,26,12,08,18.20
2007,06,26,12,09,18.20
2007,06,26,12,10,18.30
2007,06,26,12,11,18.40
2007,06,26,12,12,18.60
2007,06,26,12,13,18.60
2007,06,26,12,14,18.60
2007,06,26,12,15,18.70
2007,06,26,12,16,18.80
2007,06,26,12,17,18.90
2007,06,26,12,18,18.90
2007,06,26,12,19,18.90
2007,06,26,12,20,18.90
2007,06,26,12,21,18.90
2007,06,26,12,22,18.90
2007,06,26,12,23,18.90
2007,06,26,12,24,18.90
2007,06,26,12,25,18.80
2007,06,26,12,26,18.80
2007,06,26,12,27,18.90
2007,06,26,12,28,18.90
2007,06,26,12,29,18.90
2007,06,26,12,30,18.90
2007,06,26,12,31,18.80
2007,06,26,12,32,18.80
2007,06,26,12,33,18.90
2007,06,26,12,34,18.90
2007,06,26,12,35,18.90
2007,06,26,12,36,19.10
2007,06,26,12,37,18.90
2007,06,26,12,38,18.90
2007,06,26,12,39,18.90
2007,06,26,12,40,18.90
2007,06,26,12,41,18.90
2007,06,26,12,42,18.90
2007,06,26,12,43,19.00
2007,06,26,12,44,19.10
2007,06,26,12,45,19.10
2007,06,26,12,46,19.30
2007,06,26,12,47,19.40
2007,06,26,12,48,19.40
2007,06,26,12,49,19.30
2007,06,26,12,50,19.20
2007,06,26,12,51,19.10
2007,06,26,12,52,19.10
2007,06,26,12,53,19.20
2007,06,26,12,54,19.30
2007,06,26,12,55,19.40
2007,06,26,12,56,19.50
2007,06,26,12,57,19.40
2007,06,26,12,58,19.40
2007,06,26,12,59,19.40
2007,06,26,13,00,19.40
2007,06,26,13,01,19.40
2007,06,26,13,02,19.40
2007,06,26,13,03,19.50
2007,06,26,13,04,19.50
2007,06,26,13,05,19.40
2007,06,26,13,06,19.40
2007,06,26,13,07,19.40
2007,06,26,13,08,19.40
2007,06,26,13,09,19.50
2007,06,26,13,10,19.50
2007,06,26,13,11,19.50
2007,06,26,13,12,19.50
2007,06,26,13,13,19.60
2007,06,26,13,14,19.60
2007,06,26,13,15,19.70
2007,06,26,13,16,19.80
2007,06,26,13,17,19.80
2007,06,26,13,18,19.80
2007,06,26,13,19,19.90
2007,06,26,13,20,19.90
2007,06,26,13,21,19.90
2007,06,26,13,22,19.90
2007,06,26,13,23,19.90
2007,06,26,13,24,19.90
2007,06,26,13,25,19.90
2007,06,26,13,26,19.90
2007,06,26,13,27,19.90
2007,06,26,13,28,19.90
2007,06,26,13,29,19.90
2007,06,26,13,30,19.90
2007,06,26,13,31,19.90
2007,06,26,13,32,19.90
2007,06,26,13,33,19.90
2007,06,26,13,34,19.80
2007,06,26,13,35,19.80
2007,06,26,13,36,19.70
2007,06,26,13,37,19.80
2007,06,26,13,38,19.80
2007,06,26,13,39,19.80
2007,06,26,13,40,19.90
2007,06,26,13,41,19.90
2007,06,26,13,42,19.90
2007,06,26,13,43,19.90
2007,06,26,13,44,20.00
2007,06,26,13,45,20.10
2007,06,26,13,46,20.20
2007,06,26,13,47,20.10
2007,06,26,13,48,20.10
2007,06,26,13,49,20.10
2007,06,26,13,50,20.10
2007,06,26,13,51,20.20
2007,06,26,13,52,20.10
2007,06,26,13,53,20.10
2007,06,26,13,54,20.20
2007,06,26,13,55,20.20
2007,06,26,13,56,20.20
2007,06,26,13,57,20.20
2007,06,26,13,58,20.20
2007,06,26,13,59,20.20
2007,06,26,14,00,20.30
2007,06,26,14,01,20.20
2007,06,26,14,02,20.20
2007,06,26,14,03,20.30
2007,06,26,14,04,20.30
2007,06,26,14,05,20.30
2007,06,26,14,06,20.30
2007,06,26,14,07,20.30
2007,06,26,14,08,20.20
2007,06,26,14,09,20.20
2007,06,26,14,10,20.30
2007,06,26,14,11,20.40
2007,06,26,14,12,20.40
2007,06,26,14,13,20.40
2007,06,26,14,14,20.40
2007,06,26,14,15,20.50
2007,06,26,14,16,20.50
2007,06,26,14,17,20.50
2007,06,26,14,18,20.60
2007,06,26,14,19,20.70
2007,06,26,14,20,20.90
2007,06,26,14,21,21.00
2007,06,26,14,22,20.90
2007,06,26,14,23,20.90
2007,06,26,14,24,20.80
2007,06,26,14,25,20.80
2007,06,26,14,26,20.70
2007,06,26,14,27,20.60
2007,06,26,14,28,20.50
2007,06,26,14,29,20.50
2007,06,26,14,30,20.60
2007,06,26,14,31,20.60
2007,06,26,14,32,20.60
2007,06,26,14,33,20.60
2007,06,26,14,34,20.60
2007,06,26,14,35,20.70
2007,06,26,14,36,20.60
2007,06,26,14,37,20.60
2007,06,26,14,38,20.60
2007,06,26,14,39,20.70
2007,06,26,14,40,20.80
2007,06,26,14,41,20.80
2007,06,26,14,42,20.80
2007,06,26,14,43,20.80
2007,06,26,14,44,20.80
2007,06,26,14,45,20.80
2007,06,26,14,46,20.90
2007,06,26,14,47,21.00
2007,06,26,14,48,21.00
2007,06,26,14,49,21.00
2007,06,26,14,50,21.10
2007,06,26,14,51,21.10
2007,06,26,14,52,21.10
2007,06,26,14,53,21.10
2007,06,26,14,54,21.10
2007,06,26,14,55,21.10
2007,06,26,14,56,21.10
2007,06,26,14,57,21.20
2007,06,26,14,58,21.20
2007,06,26,14,59,21.20
2007,06,26,15,00,21.20
2007,06,26,15,01,21.20
2007,06,26,15,02,21.20
2007,06,26,15,03,21.30
2007,06,26,15,04,21.30
2007,06,26,15,05,21.30
2007,06,26,15,06,21.40
2007,06,26,15,07,21.50
2007,06,26,15,08,21.60
2007,06,26,15,09,21.70
2007,06,26,15,10,21.80
2007,06,26,15,11,21.80
2007,06,26,15,12,21.90
2007,06,26,15,13,22.00
2007,06,26,15,14,22.00
2007,06,26,15,15,22.00
2007,06,26,15,16,22.00
2007,06,26,15,17,22.10
2007,06,26,15,18,22.10
2007,06,26,15,19,22.10
2007,06,26,15,20,22.00
2007,06,26,15,21,21.90
2007,06,26,15,22,21.70
2007,06,26,15,23,21.70
2007,06,26,15,24,21.50
2007,06,26,15,25,21.30
2007,06,26,15,26,21.20
2007,06,26,15,27,21.10
2007,06,26,15,28,21.00
2007,06,26,15,29,20.90
2007,06,26,15,30,20.90
2007,06,26,15,31,21.00
2007,06,26,15,32,21.00
2007,06,26,15,33,21.10
2007,06,26,15,34,21.10
2007,06,26,15,35,21.10
2007,06,26,15,36,21.10
2007,06,26,15,37,21.10
2007,06,26,15,38,21.00
2007,06,26,15,39,21.00
2007,06,26,15,40,21.00
2007,06,26,15,41,21.10
2007,06,26,15,42,21.20
2007,06,26,15,43,21.30
2007,06,26,15,44,21.30
2007,06,26,15,45,21.40
2007,06,26,15,46,21.40
2007,06,26,15,47,21.40
2007,06,26,15,48,21.40
2007,06,26,15,49,21.40
2007,06,26,15,50,21.40
2007,06,26,15,51,21.40
2007,06,26,15,52,21.40
2007,06,26,15,53,21.40
2007,06,26,15,54,21.40
2007,06,26,15,55,21.40
2007,06,26,15,56,21.30
2007,06,26,15,57,21.30
2007,06,26,15,58,21.40
2007,06,26,15,59,21.40
2007,06,26,16,00,21.30
2007,06,26,16,01,21.30
2007,06,26,16,02,21.30
2007,06,26,16,03,21.40
2007,06,26,16,04,21.40
2007,06,26,16,05,21.50
2007,06,26,16,06,21.60
2007,06,26,16,07,21.60
2007,06,26,16,08,21.60
2007,06,26,16,09,21.60
2007,06,26,16,10,21.60
2007,06,26,16,11,21.60
2007,06,26,16,12,21.60
2007,06,26,16,13,21.60
2007,06,26,16,14,21.60
2007,06,26,16,15,21.60
2007,06,26,16,16,21.60
2007,06,26,16,17,21.60
2007,06,26,16,18,21.60
2007,06,26,16,19,21.50
2007,06,26,16,20,21.40
2007,06,26,16,21,21.40
2007,06,26,16,22,21.40
2007,06,26,16,23,21.30
2007,06,26,16,24,21.30
2007,06,26,16,25,21.20
2007,06,26,16,26,21.10
2007,06,26,16,27,21.00
2007,06,26,16,28,21.00
2007,06,26,16,29,20.90
2007,06,26,16,30,20.90
2007,06,26,16,31,21.00
2007,06,26,16,32,21.00
2007,06,26,16,33,21.00
2007,06,26,16,34,21.00
2007,06,26,16,35,21.00
2007,06,26,16,36,21.00
2007,06,26,16,37,21.00
2007,06,26,16,38,21.00
2007,06,26,16,39,21.00
2007,06,26,16,40,20.90
2007,06,26,16,41,20.90
2007,06,26,16,42,21.00
2007,06,26,16,43,20.90
2007,06,26,16,44,20.90
2007,06,26,16,45,20.90
2007,06,26,16,46,20.90
2007,06,26,16,47,21.00
2007,06,26,16,48,21.00
2007,06,26,16,49,21.00
2007,06,26,16,50,20.90
2007,06,26,16,51,20.90
2007,06,26,16,52,20.90
2007,06,26,16,53,21.00
2007,06,26,16,54,21.00
2007,06,26,16,55,21.00
2007,06,26,16,56,21.00
2007,06,26,16,57,21.00
2007,06,26,16,58,21.00
2007,06,26,16,59,21.00
2007,06,26,17,00,21.00
2007,06,26,17,01,21.00
2007,06,26,17,02,20.90
2007,06,26,17,03,20.90
2007,06,26,17,04,20.90
2007,06,26,17,05,20.80
2007,06,26,17,06,20.80
2007,06,26,17,07,20.80
2007,06,26,17,08,20.80
2007,06,26,17,09,20.80
2007,06,26,17,10,20.80
2007,06,26,17,11,20.80
2007,06,26,17,12,20.80
2007,06,26,17,13,20.80
2007,06,26,17,14,20.70
2007,06,26,17,15,20.70
2007,06,26,17,16,20.80
2007,06,26,17,17,20.80
2007,06,26,17,18,20.80
2007,06,26,17,19,20.80